This demonstration page uses our WeatherBlox Daily Observations layout. Learn more.

39.92423, -83.80882

Hourly Observations for July 16, 2020

Temp ( °F °C ) Dew Point ( °F °C ) Humidity (%) Winds ( mph kmh ) Pressure ( in mb ) Visibility ( mi km ) Precip ( " mm )
12:56 am 00:56 Clear 74 23.3 67 19.4 79 79 SE 8 13 29.98 1015 10 16.0934 0 0
1:56 am 01:56 Mostly Clear 76 24.4 67 19.4 74 74 SSE 7 11 29.95 1014 10 16.0934 0 0
2:56 am 02:56 Clear 76 24.4 67 19.4 74 74 S 3 6 29.96 1014 10 16.0934 0 0
3:56 am 03:56 Partly Cloudy 76 24.4 68 20 77 77 SSE 7 11 29.94 1014 10 16.0934 0.001 0.001
4:56 am 04:56 Clear 75 23.9 68 20 79 79 SSE 8 13 29.92 1013 10 16.0934 0 0
5:56 am 05:56 Partly Cloudy 76 24.4 68 20 77 77 SSE 9 15 29.93 1014 10 16.0934 0 0
6:56 am 06:56 Mostly Cloudy 76 24.4 69 20.6 79 79 S 6 9 29.94 1014 10 16.0934 0 0
7:56 am 07:56 Cloudy 77 25 70 21.1 79 79 S 7 11 29.96 1014 10 16.0934 0 0
8:56 am 08:56 Cloudy 79 26.1 70 21.1 74 74 SSW 6 9 29.98 1015 10 16.0934 0 0
9:56 am 09:56 Mostly Sunny 81 27.2 72 22.2 74 74 SSW 15 24 29.97 1015 10 16.0934 0 0
10:23 am 10:23 Cloudy 81 27 72 22 74 74 SW 13 20 29.95 1014 10 16.0934 0 0
10:56 am 10:56 Partly Cloudy 82 27.8 73 22.8 74 74 SSW 10 17 29.99 1016 10 16.0934 0 0
11:17 am 11:17 Mostly Cloudy 82 28 73 23 74 74 SSW 13 20 29.95 1014 10 16.0934 0 0
11:42 am 11:42 Mostly Cloudy 82 28 73 23 74 74 SSW 13 20 29.96 1015 10 16.0934 0 0
11:51 am 11:51 Mostly Cloudy 82 28 73 23 74 74 SSW 12 19 29.96 1015 10 16.0934 0 0
11:56 am 11:56 Cloudy 83 28.3 73 22.8 72 72 SSW 10 17 30 1016 10 16.0934 0 0
12:11 pm 12:11 Cloudy 84 29 73 23 70 70 WSW 15 24 29.96 1015 10 16.0934 0 0
12:18 pm 12:18 Cloudy 84 29 72 22 66 66 SW 15 24 29.96 1015 10 16.0934 0 0
12:56 pm 12:56 Mostly Cloudy 85 29.4 72 22.2 65 65 WSW 14 22 29.99 1016 10 16.0934 0 0
1:56 pm 13:56 Mostly Cloudy 86 30 72 22.2 63 63 WSW 13 20 30 1016 10 16.0934 0 0
2:56 pm 14:56 Cloudy 85 29.4 71 21.7 63 63 WSW 14 22 30.01 1016 10 16.0934 0 0
3:56 pm 15:56 Cloudy 85 29.4 72 22.2 65 65 W 16 26 30.01 1016 10 16.0934 0 0
4:56 pm 16:56 Mostly Sunny 84 28.9 72 22.2 67 67 W 18 30 30.02 1017 10 16.0934 0 0
5:56 pm 17:56 Sunny 81 27.2 71 21.7 72 72 W 18 30 30.04 1017 10 16.0934 0 0
6:56 pm 18:56 Sunny 81 27.2 70 21.1 69 69 W 15 24 30.04 1017 10 16.0934 0 0
7:56 pm 19:56 Sunny 80 26.7 71 21.7 74 74 W 8 13 30.05 1018 10 16.0934 0 0
8:56 pm 20:56 Sunny 77 25 71 21.7 82 82 W 8 13 30.06 1018 10 16.0934 0 0
9:56 pm 21:56 Clear 75 23.9 72 22.2 90 90 WNW 8 13 30.08 1019 10 16.0934 0 0
10:56 pm 22:56 Clear 72 22.2 72 22.2 100 100 SW 3 6 30.09 1019 10 16.0934 0 0
11:56 pm 23:56 Clear 70 21.1 70 21.1 100 100 Calm 30.1 1019 10 16.0934 0 0

Powered by AerisWeather